Location: Staunton
(38.1490°N, 79.0720°W)
Time: 09:34:48
(UTC-04:00)

ISS - Pass Details

Date: 20 May 2018
Orbit: 402 x 407 km, 51.6° (Epoch: 27 May)

Event Time Altitude Azimuth Distance (km) Brightness Sun altitude
Rises 21:39:46 0° 217° (SW) 2,304 0.0 -13.2°
Reaches altitude 10° 21:41:53 10° 211° (SSW) 1,448 -1.1 -13.5°
Maximum altitude 21:45:01 47° 136° (SE) 544 -3.7 -14.0°
Drops below altitude 10° 21:48:10 10° 61° (ENE) 1,455 -1.2 -14.5°
Sets 21:50:17 0° 56° (NE) 2,316 -0.1 -14.8°
